User: anonymous   Login
Location: Chippewa Lake
(41.0698°N, 81.9010°W)
Time: 14:55:18
(UTC+00:00)
Language:

Spot 2 Rocket - Orbit

View from above orbital plane
View from above orbital plane
View from above satellite
View from above satellite

Ground track
Ground track

The orbit data is extracted from the following two-line orbital elements,

1 20443U 90005H   21214.63583233  .00000014  00000-0  19148-4 0  9992
2 20443  98.5260 280.5598 0010233 190.9717 169.1248 14.38136802651217
Epoch (UTC): 02 August 2021 15:15:35
Eccentricity: 0.0010233
inclination: 98.5260°
perigee height: 757 km
apogee height: 772 km
right ascension of ascending node: 280.5598°
argument of perigee: 190.9717°
revolutions per day: 14.38136802
mean anomaly at epoch: 169.1248°
orbit number at epoch: 65121

The dashed part of the orbit path shows where the satellite is in the earth's shadow,  

DLR